Terug naar catalogus

FALCON 9 R/B

ActiefHEO
NORAD 44480·ROCKET BODY·🇺🇸 United States

Gelanceerd Aug 6, 2019 vanaf Cape Canaveral Space Force Station

Loading…

Volgende Passages (komende 24 uur)

TLE

VersSource: Space-Track

Epoch: Sep 13, 2026, 17:12 UTC

1 44480U 19050B   26256.71720244  .00025218  00000-0  74691-3 0  9991
2 44480  26.2199  34.4867 5692447 257.5751  36.4653  4.59678937 84302

Volg FALCON 9 R/B in realtime met AllMySat

Download on the App Store